Location: Bassano
(45.7667°N, 11.7333°E)
Time: 12:00:27
(UTC+00:00)

Cosmos 1709 Rocket - Pass Details

Date: 07 June 2020
Orbit: 949 x 1001 km, 82.9° (Epoch: 01 July)

Event Time Altitude Azimuth Distance (km) Brightness Sun altitude
Exits shadow 00:05:05 37° 195° (SSW) 1,435 4.3 -20.4°
Maximum altitude 00:07:40 82° 278° (W) 973 3.9 -20.3°
Drops below altitude 10° 00:13:54 10° 7° (N) 2,714 7.5 -20.0°
Sets 00:16:25 0° 8° (N) 3,672 8.6 -19.9°
